Track COSMOS 1828 now! 10-day predictions COSMOS 1828 is classified as:
1 17583U 87026B 22227.41415098 .00000023 00000-0 65947-4 0 9994 2 17583 82.5707 348.3550 0019108 31.8338 28.7352 12.66219571637135